This is the latest recevied weather packets stored in our database for station/object IZ5ILU-16. If no packets are shown the sender has not sent any weather packets the latest 10 day(s).
| Time | Temp. | Humidity | Pressure | Rain* | Wind** | Luminosity | Snow |
|---|---|---|---|---|---|---|---|
| 1788115906 | 26.11° C | 59% | 1014.8 hPa | 0 mm | - | - | - |
| 1788115306 | 26.11° C | 60% | 1014.7 hPa | 0 mm | - | - | - |
| 1788114706 | 26.67° C | 58% | 1014.6 hPa | 0 mm | - | - | - |
| 1788114106 | 26.67° C | 57% | 1014.4 hPa | 0 mm | - | - | - |
| 1788113506 | 27.22° C | 55% | 1014.4 hPa | 0 mm | - | - | - |
| 1788112906 | 27.22° C | 52% | 1014.1 hPa | 0 mm | - | - | - |
| 1788112306 | 27.78° C | 51% | 1014 hPa | 0 mm | - | - | - |
| 1788111706 | 27.78° C | 50% | 1013.8 hPa | 0 mm | - | - | - |
| 1788111106 | 28.33° C | 50% | 1013.8 hPa | 0 mm | - | - | - |
| 1788110506 | 28.89° C | 49% | 1013.7 hPa | 0 mm | - | - | - |
| 1788109906 | 29.44° C | 48% | 1013.7 hPa | 0 mm | - | - | - |
| 1788109306 | 29.44° C | 47% | 1013.7 hPa | 0 mm | - | - | - |
| 1788108706 | 30.56° C | 46% | 1013.7 hPa | 0 mm | - | - | - |
| 1788108106 | 31.11° C | 44% | 1013.6 hPa | 0 mm | - | - | - |
| 1788107506 | 31.67° C | 43% | 1013.7 hPa | 0 mm | - | - | - |
| 1788106906 | 31.67° C | 44% | 1013.6 hPa | 0 mm | - | - | - |
| 1788106306 | 31.67° C | 45% | 1013.5 hPa | 0 mm | - | - | - |
| 1788105706 | 31.67° C | 44% | 1013.5 hPa | 0 mm | - | - | - |
| 1788105106 | 31.67° C | 44% | 1013.5 hPa | 0 mm | - | - | - |
| 1788104506 | 31.67° C | 43% | 1013.6 hPa | 0 mm | - | - | - |
| 1788103906 | 31.67° C | 43% | 1013.5 hPa | 0 mm | - | - | - |
| 1788103306 | 31.67° C | 41% | 1013.6 hPa | 0 mm | - | - | - |
| 1788102706 | 31.11° C | 34% | 1013.6 hPa | 0 mm | - | - | - |
| 1788102106 | 30.56° C | 35% | 1013.7 hPa | 0 mm | - | - | - |
| 1788101506 | 30.56° C | 36% | 1013.7 hPa | 0 mm | - | - | - |
* Rain latest hour (hover to see other rain measurements)
** Current wind speed in m/s (hover to see current wind gust speed)